[[{"header":{"parameterUnit":"m.s-1","parameterCategory":1,"la1":30.2991,"la2":30.254,"lo1":-89.0895,"lo2":-89.0444,"dy":0.0017,"dx":0.0017,"nx":28,"ny":28,"refTime":"2024-08-29T03:00:00:Z","depth":0,"parameterNumber":2,"parameterNumberName":"U-component_of_WINDS"},"data":[0,0,0,0,0,0,0,0,0,0,0,0,0,0,0,0,0,0,0,0,0,0,0,0,0,0,0,0,0,0,0,0,0,0,0,0,0,0,0,0,0,0,0,0,0,0,0,0,0,0,0,0,0,0,0,0,0,0,-2.151,-2.1511,0,-2.1589,-2.159,-2.1591,-2.1575,-2.1574,-2.1572,-2.1571,-2.1652,-2.1656,-2.1659,0,0,0,0,0,0,0,0,0,0,0,0,0,-2.1347,-2.135,-2.151,-2.1511,-2.1512,-2.1589,-2.159,-2.1591,-2.1576,-2.1574,-2.1572,-2.157,-2.1651,-2.1655,-2.1659,0,0,0,0,0,0,0,0,0,0,0,0,0,-2.1421,-2.1351,-2.151,-2.1513,-2.1515,-2.1588,-2.159,-2.1591,-2.1576,-2.1574,-2.1572,-2.157,-2.165,-2.1655,-2.166,-2.1735,0,0,-2.1676,-2.1678,0,0,0,0,0,0,0,0,-2.1417,-2.1427,-2.1512,-2.1513,-2.1515,-2.157,-2.1562,-2.1639,-2.1576,-2.1553,-2.1571,-2.1569,-2.1627,-2.1634,-2.1653,-2.1739,-2.1742,-2.1676,-2.1679,-2.1682,-2.1683,0,0,0,0,0,0,0,-2.1411,-2.1423,-2.1541,-2.1513,-2.1515,-2.1511,-2.152,-2.1577,-2.1601,-2.1555,-2.1554,-2.1563,-2.1627,-2.1648,-2.1655,-2.1743,-2.1676,-2.1681,-2.1684,-2.1686,-2.1896,-2.1898,0,0,0,0,0,0,-2.1405,-2.1419,-2.1539,-2.1543,-2.1459,-2.1516,-2.1525,-2.1554,-2.16,-2.1605,-2.1565,-2.1562,-2.164,-2.1649,-2.1658,-2.1749,-2.1682,-2.1687,-2.169,-2.1893,-2.1896,-2.1899,0,0,0,0,0,0,-2.1402,-2.1416,-2.1535,-2.1481,-2.1496,-2.1521,-2.1554,-2.1557,-2.1578,-2.1608,-2.1612,-2.1582,-2.1639,-2.165,-2.1716,-2.1751,-2.1689,-2.1694,-2.1891,-2.1894,-2.1898,-2.1932,0,0,0,0,0,0,-2.1397,-2.1415,-2.1443,-2.1482,-2.1499,-2.1592,-2.1556,-2.156,-2.1587,-2.1584,-2.1625,-2.163,-2.1638,-2.1708,-2.1721,-2.1757,-2.1698,-2.1887,-2.1892,-2.1897,-2.1927,-2.1936,-2.1943,0,0,0,0,0,-2.1391,-2.1449,-2.1445,-2.1459,-2.1535,-2.1594,-2.1604,-2.1612,-2.159,-2.1619,-2.1638,-2.1628,-2.1746,-2.1715,-2.173,-2.1768,-2.1885,-2.1891,-2.1896,-2.1924,-2.1934,-2.1943,0,0,0,0,0,0,-2.1414,-2.1454,-2.145,-2.1522,-2.1555,-2.1591,-2.1628,-2.1623,-2.1663,-2.1659,-2.1667,-2.1677,-2.1744,-2.1763,-2.1728,-2.1844,-2.1812,-2.1821,-2.1829,-2.1839,-2.1846,-2.184,-2.1702,0,0,0,0,0,-2.1427,-2.1472,-2.1505,-2.1566,-2.1583,-2.1603,-2.1629,-2.1633,-2.1667,-2.1681,-2.1705,-2.1738,-2.1783,-2.1812,-2.1855,-2.1931,-2.1939,-2.1964,-2.1972,-2.1979,-2.1986,-2.2028,-2.2039,-2.1917,-2.1917,-2.1917,0,0,-2.1455,-2.1483,-2.1511,-2.1571,-2.1597,-2.1643,-2.1614,-2.1664,-2.1699,-2.1688,-2.1752,-2.1771,-2.1809,-2.1881,-2.1913,-2.1898,-2.2022,-2.1986,-2.199,-2.1994,-2.2035,-2.2046,-2.2056,-2.1921,-2.192,-2.1919,0,0,-2.153,-2.1556,-2.1609,-2.1636,-2.1676,-2.1689,-2.1702,-2.174,-2.1752,-2.1816,-2.1809,-2.1851,-2.1927,-2.1955,-2.1979,-2.2066,-2.2059,-2.208,-2.2121,-2.2162,-2.2172,-2.218,-2.2211,-2.2222,-2.2087,-2.2087,-2.2087,0,-2.156,-2.1629,-2.1637,-2.1688,-2.1715,-2.1708,-2.1763,-2.1789,-2.184,-2.1859,-2.1842,-2.1939,-2.1964,-2.2042,-2.2063,-2.2083,-2.2098,-2.2075,-2.217,-2.2178,-2.2186,-2.2216,-2.2228,-2.209,-2.2089,-2.2089,-2.2089,0,-2.1664,-2.1712,-2.175,-2.1801,-2.1832,-2.1884,-2.1901,-2.1932,-2.1934,-2.1949,-2.2015,-2.2046,-2.2095,-2.2114,-2.2115,-2.2192,-2.2182,-2.2167,-2.2136,-2.22,-2.2228,-2.224,-2.2093,-2.2092,-2.2091,-2.2091,0,0,-2.1754,-2.1809,-2.1823,-2.1845,-2.1889,-2.1927,-2.198,-2.2028,-2.2054,-2.2091,-2.2135,-2.2201,-2.2188,-2.2215,-2.222,-2.2257,-2.2324,-2.2237,-2.2239,-2.2252,-2.2411,-2.2421,-2.2434,-2.232,-2.2322,-2.2323,-2.2407,0,-2.1832,-2.1924,-2.1934,-2.2017,-2.2061,-2.2057,-2.2102,-2.2135,-2.2151,-2.2192,-2.221,-2.2256,-2.2235,-2.2252,-2.2288,-2.2308,-2.2356,-2.2302,-2.2361,-2.2363,-2.2351,-2.2448,-2.2459,-2.2537,-2.2418,-2.242,-2.2422,0,-2.1935,-2.1975,-2.2062,-2.21,-2.2119,-2.216,-2.2206,-2.2245,-2.2282,-2.2291,-2.2323,-2.2323,-2.2378,-2.2346,-2.2422,-2.2385,-2.241,-2.2424,-2.2428,-2.2433,-2.2395,-2.2456,-2.2562,-2.2573,-2.2439,-2.2438,-2.2436,0,-2.1992,-2.2067,-2.2129,-2.2149,-2.2195,-2.2224,-2.2245,-2.228,-2.2308,-2.2348,-2.2367,-2.2413,-2.2438,-2.2474,-2.2487,-2.2462,-2.2563,-2.2531,-2.2572,-2.2572,-2.2593,-2.2591,-2.2704,-2.261,-2.261,-2.261,-2.2609,0,-2.2078,-2.2131,-2.2155,-2.2193,-2.2253,-2.2264,-2.2323,-2.2343,-2.2374,-2.2416,-2.2415,-2.2455,-2.2471,-2.2513,-2.2525,-2.2586,-2.2598,-2.2607,-2.2609,-2.2607,-2.2605,-2.2622,-2.2617,-2.2613,-2.2612,-2.2612,-2.2611,0,-2.215,-2.2168,-2.2235,-2.2274,-2.2285,-2.2328,-2.2361,-2.2398,-2.2415,-2.2468,-2.2481,-2.2507,-2.2557,-2.2574,-2.2635,-2.2643,-2.2714,-2.2712,-2.2702,-2.2702,-2.2742,-2.2738,-2.2869,-2.2886,-2.2782,-2.2783,-2.2783,0,-2.2204,-2.2245,-2.2288,-2.2316,-2.2338,-2.2383,-2.2413,-2.2426,-2.2457,-2.2503,-2.2534,-2.2584,-2.2624,-2.2705,-2.2729,-2.2776,-2.2775,-2.2818,-2.2782,-2.2778,-2.2775,-2.2772,-2.2777,-2.2824,-2.2825,-2.2826,-2.2827,0,-2.2296,-2.2303,-2.2345,-2.2391,-2.2426,-2.2463,-2.2498,-2.2521,-2.254,-2.2575,-2.2626,-2.2657,-2.272,-2.277,-2.2818,-2.284,-2.2837,-2.2838,-2.285,-2.2847,-2.2839,-2.2844,-2.2719,-2.2835,-2.2834,-2.2833,-2.2833,-2.2832,-2.2361,-2.2397,-2.2433,-2.2481,-2.2509,-2.2542,-2.2579,-2.26,-2.2643,-2.2695,-2.27,-2.2756,-2.2793,-2.2857,-2.2882,-2.2926,-2.2914,-2.2931,-2.2935,-2.2939,-2.2942,-2.2833,-2.2935,-2.2934,-2.2934,-2.2934,-2.2934,0,-2.2453,-2.2477,-2.252,-2.257,-2.2607,-2.2601,-2.264,-2.2672,-2.2721,-2.2755,-2.2796,-2.2855,-2.2904,-2.2932,-2.2981,-2.3011,-2.3011,-2.3023,-2.3021,-2.3026,-2.295,-2.2935,-2.3022,-2.3022,-2.3022,-2.3022,-2.3022,-2.3022,-2.2506,-2.2567,-2.2578,-2.2654,-2.2677,-2.2731,-2.2754,-2.2786,-2.2813,-2.288,-2.292,-2.2938,-2.2971,-2.3022,-2.3067,-2.3074,-2.3092,-2.3106,-2.3112,-2.304,-2.3031,-2.3022,-2.3008,-2.311,-2.311,-2.3184,-2.3185,-2.3186]},{"header":{"parameterUnit":"m.s-1","parameterCategory":1,"la1":30.2991,"la2":30.254,"lo1":-89.0895,"lo2":-89.0444,"dy":0.0017,"dx":0.0017,"nx":28,"ny":28,"refTime":"2024-08-29T03:00:00:Z","depth":0,"parameterNumber":3,"parameterNumberName":"V-component_of_WINDS"},"data":[0,0,0,0,0,0,0,0,0,0,0,0,0,0,0,0,0,0,0,0,0,0,0,0,0,0,0,0,0,0,0,0,0,0,0,0,0,0,0,0,0,0,0,0,0,0,0,0,0,0,0,0,0,0,0,0,0,0,0.6748,0.6747,0,0.6696,0.6696,0.6695,0.6661,0.6661,0.6661,0.6661,0.6603,0.6601,0.66,0,0,0,0,0,0,0,0,0,0,0,0,0,0.6812,0.6811,0.6748,0.6747,0.6746,0.6696,0.6696,0.6695,0.6661,0.6661,0.6661,0.6661,0.6603,0.6601,0.66,0,0,0,0,0,0,0,0,0,0,0,0,0,0.6774,0.681,0.6748,0.6724,0.6721,0.6697,0.6696,0.6695,0.6661,0.6661,0.6661,0.6661,0.6604,0.6602,0.66,0.6593,0,0,0.6593,0.6593,0,0,0,0,0,0,0,0,0.6776,0.6772,0.6728,0.6725,0.6722,0.6685,0.6697,0.6661,0.6662,0.6684,0.6661,0.666,0.663,0.6626,0.6617,0.6591,0.6588,0.6593,0.6592,0.6591,0.6591,0,0,0,0,0,0,0,0.6779,0.6774,0.6727,0.6727,0.6724,0.6714,0.6708,0.669,0.6659,0.6682,0.6679,0.6674,0.6628,0.6619,0.6615,0.6587,0.6593,0.6592,0.659,0.6589,0.6553,0.6553,0,0,0,0,0,0,0.6786,0.6776,0.6729,0.6726,0.6749,0.6713,0.6707,0.6697,0.6659,0.6653,0.6674,0.6673,0.6622,0.6617,0.6613,0.6603,0.6591,0.6589,0.6588,0.6553,0.6553,0.6553,0,0,0,0,0,0,0.6788,0.6782,0.6731,0.675,0.6743,0.6712,0.6702,0.6696,0.6687,0.6654,0.6647,0.6671,0.6622,0.6616,0.6599,0.66,0.6588,0.6587,0.6553,0.6553,0.6553,0.6582,0,0,0,0,0,0,0.679,0.6783,0.6781,0.6751,0.6742,0.6719,0.6702,0.6696,0.6684,0.6681,0.6648,0.6643,0.6621,0.6602,0.6597,0.6597,0.6585,0.6552,0.6553,0.6553,0.6581,0.6584,0.6586,0,0,0,0,0,0.6792,0.679,0.6782,0.6776,0.674,0.6719,0.6714,0.6691,0.6684,0.6682,0.666,0.6644,0.6601,0.6601,0.6594,0.6594,0.6552,0.6553,0.6553,0.658,0.6583,0.6586,0,0,0,0,0,0,0.682,0.6786,0.6776,0.6764,0.6745,0.6714,0.671,0.6695,0.6677,0.6675,0.6645,0.6638,0.6624,0.6607,0.6607,0.6586,0.6574,0.6574,0.6597,0.66,0.6602,0.6606,0.6583,0,0,0,0,0,0.6826,0.6813,0.6783,0.6776,0.6768,0.6741,0.6731,0.6715,0.6693,0.6684,0.6662,0.664,0.6622,0.661,0.6591,0.6579,0.6571,0.6576,0.6578,0.658,0.6579,0.6571,0.6573,0.6555,0.6555,0.6555,0,0,0.6835,0.6815,0.6809,0.6782,0.6765,0.6751,0.6734,0.672,0.671,0.6682,0.6665,0.6648,0.6621,0.6607,0.6599,0.6592,0.6583,0.6581,0.6583,0.6581,0.6572,0.6574,0.6575,0.6556,0.6556,0.6556,0,0,0.6846,0.6831,0.6823,0.6807,0.6783,0.6765,0.6763,0.6734,0.6722,0.6705,0.6684,0.667,0.664,0.6621,0.6608,0.6614,0.6597,0.6609,0.662,0.6613,0.6614,0.6615,0.6616,0.6617,0.6608,0.6608,0.6608,0,0.6861,0.6842,0.682,0.6808,0.6796,0.6773,0.6764,0.6749,0.6719,0.6711,0.6704,0.6666,0.6646,0.6627,0.6628,0.6619,0.6615,0.6611,0.6616,0.6617,0.6617,0.6618,0.6618,0.661,0.661,0.6609,0.6609,0,0.6861,0.6848,0.6844,0.6818,0.6806,0.6795,0.6771,0.6761,0.6746,0.6729,0.6711,0.6688,0.6664,0.6658,0.6643,0.6636,0.6633,0.6622,0.6609,0.6621,0.6621,0.6621,0.6612,0.6611,0.6611,0.6611,0,0,0.6887,0.685,0.6849,0.6837,0.6809,0.6797,0.6786,0.6764,0.6756,0.6736,0.6725,0.67,0.669,0.6675,0.6657,0.6651,0.6656,0.664,0.6639,0.6643,0.6646,0.6654,0.6655,0.6645,0.6645,0.6645,0.6648,0,0.6893,0.6872,0.6853,0.6838,0.6825,0.6803,0.6793,0.6774,0.6757,0.6743,0.6724,0.6706,0.6695,0.6685,0.6678,0.6657,0.6656,0.6657,0.6632,0.6632,0.6639,0.6655,0.6663,0.6666,0.6648,0.6648,0.6648,0,0.6897,0.688,0.6865,0.6839,0.6833,0.6824,0.6803,0.679,0.6767,0.6756,0.674,0.6722,0.6707,0.6698,0.6676,0.6677,0.6666,0.6654,0.6654,0.665,0.664,0.665,0.6667,0.6667,0.6648,0.6648,0.6648,0,0.6916,0.689,0.6878,0.6868,0.6837,0.6831,0.6818,0.6796,0.6784,0.6765,0.6757,0.6736,0.6724,0.6707,0.6684,0.668,0.6664,0.6653,0.6653,0.6653,0.6649,0.6649,0.6664,0.6644,0.6644,0.6644,0.6644,0,0.6924,0.6915,0.6886,0.6878,0.6868,0.6845,0.6834,0.6819,0.6799,0.6787,0.6766,0.6755,0.6725,0.671,0.6692,0.6676,0.6671,0.6659,0.6654,0.6661,0.6662,0.6652,0.6651,0.6644,0.6644,0.6644,0.6644,0,0.6943,0.6923,0.6908,0.6881,0.6874,0.6867,0.6843,0.6834,0.6817,0.6802,0.6797,0.6769,0.675,0.6726,0.6698,0.6686,0.6672,0.6665,0.668,0.6677,0.6677,0.6677,0.6685,0.6684,0.6667,0.6667,0.6667,0,0.6949,0.6942,0.6915,0.6906,0.6894,0.688,0.6869,0.6846,0.6835,0.6809,0.6803,0.6783,0.6765,0.6735,0.6712,0.6691,0.6682,0.6686,0.6678,0.6685,0.6681,0.6681,0.668,0.6688,0.6688,0.6688,0.6688,0,0.6961,0.6952,0.6937,0.692,0.6907,0.6891,0.6874,0.6868,0.6842,0.683,0.6811,0.6798,0.6771,0.675,0.6727,0.6711,0.6694,0.6692,0.669,0.6696,0.6704,0.6699,0.6684,0.6691,0.6691,0.669,0.669,0.669,0.6973,0.6966,0.6946,0.693,0.6916,0.6901,0.6891,0.6874,0.6858,0.6836,0.6823,0.6805,0.6782,0.6749,0.6734,0.6718,0.6712,0.671,0.6709,0.6709,0.671,0.6708,0.6713,0.6713,0.6713,0.6713,0.6713,0,0.6983,0.697,0.6956,0.6934,0.6921,0.691,0.6891,0.6881,0.6865,0.6847,0.6831,0.6809,0.6789,0.6765,0.6743,0.6735,0.6727,0.673,0.673,0.6726,0.6717,0.672,0.6737,0.6737,0.6737,0.6737,0.6737,0.6737,0.6987,0.6974,0.6963,0.6943,0.6928,0.6912,0.6902,0.6887,0.6872,0.685,0.6834,0.6819,0.6798,0.6775,0.6756,0.6749,0.6741,0.6746,0.6737,0.6729,0.6727,0.6725,0.6727,0.6745,0.6745,0.6747,0.6747,0.6747]}]]